Flag for Norway Weather past 2 weeks in Stavanger, Norway

Now
63 °F

Scattered clouds.


Feels Like: 63 °F
Forecast: 58 / 67 °F
Wind: 5 mph from Southwest

Location: Stavanger / Sola

Current Time: Jul 3, 2015 at 5:49:57 PM

Latest Report: Jul 3, 2015 at 4:50 PM


Visibility: 5 mi

Pressure: 30.27 "Hg

Humidity: 83%

Dew point: 57 °F

Location of StavangerLocation

Historic Weather in Stavanger — Graph

°F

Stavanger temperature yesterday

Maximum temperature yesterday: 84 °F (at 3:20 PM)
Minimum temperature yesterday: 64 °F (at 3:50 AM)
Average temperature yesterday: 76 °F

Past Weeks' High & Low Weather Summary

 TemperatureHumidityPressure
High84 °F (Jul 2, 3:20 PM)100% (Jun 27, 5:20 PM)30.30 "Hg (Jun 27, 5:20 PM)
Low45 °F (Jun 26, 3:50 AM)37% (Jul 2, 2:20 PM)29.68 "Hg (Jun 22, 3:50 PM)
Average58 °F76%29.97 "Hg
* Reported Jun 18 4:20 PM — Jul 3 4:20 PM, Stavanger, Weather by CustomWeather, © 2015

Note: Actual official high and low records may vary slightly from our data, if they occured in-between our weather recording intervals... More about our weather records

Advertising

Stavanger weather history for previous 24 hours

 ConditionsComfort  
Time TempWeatherWind HumidityBarometerVisibility
4:20 PM
Fri, Jul 3
59 °FFog.9 mph94%30.30 "Hg2 mi
3:50 PM59 °FFog.12 mph94%30.27 "Hg2 mi
3:20 PM61 °FFog.14 mph83%30.27 "Hg2 mi
2:50 PM64 °FPartly sunny.16 mph83%30.27 "Hg6 mi
2:20 PM66 °FFog.15 mph78%30.24 "HgN/A
1:50 PM72 °FFog.15 mph73%30.24 "HgN/A
1:20 PM72 °FPassing clouds.15 mph73%30.21 "HgN/A
12:50 PM70 °FPassing clouds.16 mph78%30.21 "HgN/A
12:20 PM72 °FPassing clouds.17 mph69%30.21 "HgN/A
11:50 AM70 °FPassing clouds.15 mph73%30.21 "HgN/A
11:20 AM66 °FPartly sunny.12 mph83%30.18 "HgN/A
10:50 AM64 °FPartly sunny.15 mph83%30.18 "HgN/A
10:20 AM66 °FPartly sunny.18 mph78%30.18 "HgN/A
9:50 AM64 °FScattered clouds.17 mph83%30.18 "HgN/A
9:20 AM72 °FSunny.9 mph65%30.15 "Hg10 mi
8:50 AM72 °FSunny.9 mph69%30.15 "Hg10 mi
8:20 AM68 °FSunny.7 mph73%30.15 "Hg10 mi
7:50 AM68 °FSunny.8 mph69%30.15 "Hg10 mi
7:20 AM68 °FSunny.8 mph69%30.12 "Hg10 mi
6:50 AM68 °FSunny.9 mph64%30.12 "Hg10 mi
6:20 AM68 °FSunny.12 mph64%30.12 "Hg10 mi
5:50 AM68 °FSunny.13 mph60%30.12 "Hg10 mi
4:50 AM70 °FClear.17 mph57%30.12 "Hg10 mi
3:50 AM70 °FPassing clouds.18 mph64%30.12 "HgN/A
2:50 AM73 °FPassing clouds.17 mph57%30.12 "HgN/A
1:50 AM73 °FPassing clouds.13 mph57%30.09 "HgN/A
12:50 AM73 °FPassing clouds.12 mph57%30.15 "HgN/A
12:20 AM73 °FPartly cloudy.14 mph57%30.15 "HgN/A
11:50 PM
Thu, Jul 2
75 °FThunderstorms. Passing clouds.17 mph54%30.15 "HgN/A
11:20 PM75 °FPartly sunny.15 mph54%30.15 "HgN/A
10:50 PM75 °FPartly sunny.15 mph54%30.15 "HgN/A
10:20 PM77 °FPartly sunny.15 mph51%30.15 "HgN/A
9:50 PM77 °FScattered clouds.17 mph51%30.12 "HgN/A
9:20 PM77 °FScattered clouds.16 mph47%30.12 "HgN/A
8:50 PM79 °FScattered showers. Scattered clouds.15 mph45%30.15 "HgN/A
8:20 PM79 °FScattered showers. Scattered clouds.14 mph45%30.15 "HgN/A
7:50 PM79 °FScattered showers. Scattered clouds.16 mph42%30.12 "HgN/A
7:20 PM81 °FScattered showers. Scattered clouds.16 mph39%30.12 "HgN/A
6:50 PM81 °FScattered showers. Scattered clouds.16 mph39%30.12 "HgN/A
6:20 PM81 °FThundershowers. Scattered clouds.20 mph39%30.12 "HgN/A
5:50 PM82 °FScattered clouds.22 mph37%30.12 "HgN/A
5:20 PM82 °FSunny.24 mph40%30.12 "Hg10 mi
Weather by CustomWeather, © 2015

See weather overviewHow to use our weather pages